Theta_e
343 339 341 343 345 344 344 344 345 346 347 347 347 347 348 348 351 352 353 355 357 358 361 362 362 363 363 363 364 363 364 363 362 363 363 362 360 361 361 359 361 360 357 355 358 361 360 367 365 365 368 367 370 371 373 371 368 366 367 371 366 366 364
342 341 341 342 343 344 345 347 348 348 348 347 349 350 350 350 350 352 353 355 356 357 360 360 362 362 364 364 364 366 364 364 363 363 362 363 364 365 362 362 360 361 366 361 361 363 367 363 366 366 367 368 366 373 370 368 370 371 368 368 365 371 370
341 343 342 341 342 342 347 347 348 348 349 349 349 349 350 352 352 354 354 354 355 357 359 358 361 360 363 365 365 365 363 363 363 361 361 359 361 360 362 363 362 361 359 362 364 360 364 366 365 369 368 364 363 367 372 372 369 365 369 370 366 363 366
345 346 347 347 343 346 347 348 349 349 350 351 350 352 350 353 355 355 356 357 354 355 355 354 356 357 358 362 363 364 364 362 363 360 357 358 356 360 361 361 362 362 359 361 360 360 357 361 364 368 366 367 367 367 367 367 366 366 368 369 365 367 365
344 346 346 346 345 344 345 346 347 350 350 352 352 353 352 354 355 357 356 356 356 353 352 352 351 352 355 357 359 360 361 361 360 361 360 359 360 360 358 358 357 358 358 359 362 361 364 364 363 365 365 368 368 368 371 369 366 370 369 367 365 366 367
343 345 346 349 346 346 343 345 347 349 350 351 352 351 354 355 353 352 356 357 357 356 355 353 350 351 352 355 357 357 360 361 362 362 359 361 358 357 357 357 357 357 356 358 359 361 361 360 361 362 363 363 362 363 363 366 364 366 368 368 365 363 359
344 346 346 347 348 346 345 345 347 348 350 351 352 352 354 354 355 356 357 358 360 358 354 352 351 352 352 353 356 358 358 357 359 358 358 356 358 358 358 358 358 358 357 358 358 360 360 360 362 363 362 362 361 360 364 367 366 366 368 369 370 365 365
343 344 344 345 349 349 349 349 348 349 350 351 351 350 351 355 357 355 356 357 358 356 357 355 353 355 356 355 354 356 356 358 358 359 357 354 353 354 355 356 357 359 360 357 359 360 360 362 361 363 363 360 361 363 363 367 369 367 365 366 368 367 363
342 343 345 346 348 348 349 351 352 352 350 351 351 350 351 351 351 356 358 359 361 361 360 360 357 357 357 355 354 353 353 355 355 355 354 352 351 350 350 352 354 357 357 354 357 361 358 360 360 361 363 362 361 364 364 370 369 366 365 366 368 368 363
342 346 348 348 348 348 349 348 350 348 347 350 352 354 354 355 354 356 360 361 362 361 363 363 362 359 359 357 355 354 354 353 353 351 351 350 349 348 349 348 349 353 354 353 353 352 358 358 360 361 367 363 365 369 365 367 364 365 366 366 368 366 364
341 346 345 346 345 345 345 345 343 346 351 350 351 352 353 351 352 353 356 359 360 361 363 363 366 367 367 366 359 356 354 354 353 351 353 353 350 347 348 348 348 350 351 352 351 350 353 359 360 363 367 362 363 365 364 364 365 365 365 366 365 364 361
340 341 343 342 345 344 342 342 339 344 344 345 352 353 352 352 353 355 357 359 361 361 362 364 365 370 370 368 365 363 359 356 354 354 354 354 354 353 348 347 347 348 350 351 352 350 348 354 359 361 366 365 364 364 365 365 366 367 365 364 364 364 364
339 340 341 341 343 343 346 346 346 345 343 345 349 351 355 356 358 358 358 359 359 360 361 364 365 367 365 365 363 364 362 359 357 355 355 358 359 359 357 351 347 347 347 350 350 350 348 348 357 361 363 365 364 363 364 367 365 367 367 365 365 364 364
341 340 342 342 344 343 344 346 347 348 350 349 350 351 351 349 355 358 358 357 357 359 361 362 362 363 363 363 362 361 361 360 358 359 361 360 361 361 360 356 350 349 349 349 350 349 348 347 349 356 359 362 362 363 364 366 366 366 368 368 364 363 363
339 339 340 340 342 345 346 346 347 346 347 348 349 350 352 353 354 355 356 356 354 354 357 361 361 360 359 362 362 360 362 361 359 362 365 365 367 367 366 363 357 353 352 352 350 349 351 349 347 350 354 356 356 358 357 356 358 361 363 362 363 362 360
339 340 339 340 343 341 344 345 346 346 346 347 347 348 349 350 349 350 352 354 355 355 357 358 359 359 358 357 360 362 363 363 364 364 365 365 365 368 368 366 365 362 359 356 355 357 357 356 351 349 351 353 355 355 352 352 353 365 364 364 364 362 359
339 338 338 340 341 341 342 343 344 345 346 346 347 348 348 349 350 351 352 352 352 352 353 354 355 357 356 357 360 361 360 359 359 360 361 363 363 363 363 362 362 361 361 361 362 361 361 356 354 351 349 350 353 355 352 351 356 349 344 346 354 361 363
337 335 334 333 337 340 340 340 341 342 343 343 344 344 346 349 351 350 349 351 352 354 357 357 357 356 356 355 356 356 356 356 357 357 357 357 357 358 359 360 359 359 362 362 360 363 360 356 356 357 354 352 353 352 351 349 335 333 336 341 342 356 363
334 335 334 335 337 338 339 339 339 339 340 341 343 344 346 348 347 348 350 350 352 355 355 355 355 354 353 352 353 354 354 354 354 353 354 356 356 356 356 358 358 358 358 357 359 359 359 358 356 357 357 354 355 354 354 353 333 331 333 334 336 338 356
334 337 337 337 337 336 336 337 337 339 340 340 340 340 341 341 340 341 343 345 349 351 350 349 348 347 346 347 350 352 353 354 353 353 354 356 356 356 355 355 356 357 358 357 358 358 359 358 357 359 361 359 359 362 355 353 332 328 329 331 332 335 343
333 338 337 336 335 335 335 336 337 338 336 335 335 337 338 337 337 336 335 337 340 343 343 341 339 339 341 341 342 346 348 350 351 351 350 352 353 352 354 359 357 356 357 360 361 359 357 357 353 357 356 359 358 355 348 340 325 325 327 326 327 329 342
334 336 335 336 336 335 334 334 335 334 334 335 335 334 333 332 331 330 329 331 332 334 336 336 335 335 338 339 341 341 342 343 344 346 347 347 348 350 351 354 353 357 360 360 356 352 354 358 357 353 350 349 350 351 351 337 317 320 321 322 324 330 353
336 334 336 337 336 334 335 335 332 331 332 333 332 331 330 330 329 329 329 329 329 329 329 330 331 332 334 336 339 341 342 342 341 341 341 343 345 345 345 345 347 348 352 354 356 353 353 351 352 355 351 347 348 346 346 337 322 316 317 318 319 339 357
335 335 334 334 334 335 336 335 333 332 330 329 329 329 331 331 330 329 328 327 327 327 327 327 326 329 330 332 334 338 339 340 340 339 338 338 338 339 341 343 346 347 349 349 350 351 350 349 353 351 348 348 344 346 337 334 323 313 314 315 316 333 352
334 336 334 333 333 332 332 333 332 330 330 329 326 328 329 329 328 325 323 324 324 325 324 324 325 326 327 330 333 333 335 337 337 337 338 337 337 338 339 339 343 346 349 349 348 348 350 352 352 353 349 348 346 344 339 336 330 314 312 312 314 333 353
331 334 335 335 335 334 332 333 332 330 328 327 327 328 327 326 325 326 325 325 325 324 324 327 327 329 328 329 333 333 333 332 335 335 335 337 337 337 337 339 342 343 346 348 349 349 348 348 351 346 346 345 340 338 336 335 332 324 311 311 312 314 344
331 332 331 331 330 333 330 328 327 325 324 326 325 323 325 327 326 325 325 323 322 322 324 325 324 324 329 333 331 330 330 330 330 333 335 335 335 336 338 339 339 342 344 345 345 343 342 343 347 347 345 345 342 339 336 335 332 326 310 309 309 311 324
330 328 329 332 331 331 330 327 328 326 325 325 324 325 325 325 325 325 324 322 319 319 322 328 329 327 326 328 329 326 325 327 327 331 333 334 335 335 336 338 340 339 339 339 342 338 335 339 342 341 344 344 342 339 335 334 333 331 317 310 309 309 312
329 328 328 329 330 328 326 325 325 326 326 326 324 325 325 324 324 324 324 324 326 327 327 324 322 326 328 329 328 327 326 329 330 331 330 331 333 332 332 333 336 337 336 339 338 333 333 337 338 338 338 340 340 338 336 334 332 331 329 315 309 309 311
329 330 329 329 328 327 327 327 326 325 325 324 326 325 324 324 324 325 324 324 327 327 328 328 327 326 323 324 325 328 328 327 323 325 330 329 331 331 332 333 335 336 337 337 338 335 335 336 336 337 335 334 334 334 335 334 331 327 327 326 314 312 311
327 329 328 327 326 328 327 326 325 325 326 327 327 327 325 324 324 323 322 324 327 327 326 326 327 327 326 326 325 325 323 326 328 327 324 322 328 330 330 329 331 332 335 335 335 333 333 337 334 334 333 333 333 333 336 338 335 332 330 326 325 316 315
328 329 328 327 328 328 326 325 325 325 324 325 325 325 327 325 325 324 325 326 326 327 327 325 324 325 324 325 325 324 324 324 322 322 325 326 323 322 326 325 326 327 329 330 331 332 333 332 331 332 333 332 333 333 334 337 338 338 335 334 332 328 319
328 328 327 327 328 327 325 324 321 322 322 323 325 325 325 326 325 326 327 327 327 327 327 327 325 324 325 324 324 324 325 324 324 322 323 324 324 325 323 322 323 326 332 329 328 327 328 329 330 330 330 331 331 333 333 334 333 330 328 327 326 327 331
328 328 329 329 327 326 326 324 322 322 322 323 325 326 325 326 325 327 328 327 326 325 327 327 327 326 326 324 324 323 323 318 314 322 320 319 323 323 322 323 323 323 323 324 324 323 328 325 327 329 330 329 329 331 330 329 323 322 321 319 319 320 323
329 328 329 328 327 327 326 324 323 324 323 322 323 324 325 325 326 326 326 326 326 326 324 321 321 324 321 321 321 316 321 321 320 320 319 321 323 320 320 319 323 326 325 321 321 319 318 324 327 328 328 327 329 328 330 326 320 316 307 314 305 311 315
329 330 329 329 328 328 327 326 326 325 324 324 325 324 324 323 323 324 323 324 324 324 324 323 323 323 322 323 322 321 320 322 320 319 321 320 321 324 320 314 308 313 323 320 315 307 303 306 318 317 322 327 326 324 323 320 315 303 298 297 298 298 298
328 329 328 329 327 327 327 326 326 325 325 325 325 323 323 324 324 325 323 325 325 324 324 325 323 322 322 321 319 314 321 321 321 322 322 322 319 322 322 320 316 301 305 313 313 304 296 295 297 301 306 318 323 315 306 305 298 295 297 297 297 296 295
329 329 327 327 328 327 326 325 325 325 324 325 325 323 323 320 321 323 322 323 325 324 324 324 321 320 321 322 322 320 322 322 321 322 323 323 321 324 320 321 321 317 304 302 304 301 298 298 296 294 295 299 307 321 319 306 298 296 297 297 296 297 295
Wind_Speed
16 18 17 16 16 16 16 16 16 14 14 13 13 13 13 11 11 11 11 12 12 12 12 11 10 10 10 9 9 9 8 8 8 7 6 5 5 5 5 6 6 4 4 5 5 4 4 1 3 2 5 4 4 4 3 3 3 3 3 2 3 2 2
17 16 16 15 16 16 18 16 16 14 14 14 13 14 12 12 12 10 10 12 12 13 12 11 10 9 9 9 8 9 9 8 7 6 6 5 4 4 5 5 4 4 3 2 4 4 5 5 4 3 3 4 4 4 4 4 4 3 3 3 3 2 2
17 14 13 15 13 16 17 16 16 14 15 14 14 13 13 13 12 12 11 11 12 12 12 12 11 10 9 9 8 9 9 8 8 8 8 8 7 8 6 4 5 5 6 4 3 5 4 5 5 4 5 4 4 5 3 4 4 4 2 3 3 4 3
13 12 10 10 16 15 17 16 16 15 14 14 13 12 14 13 12 11 10 11 12 12 13 12 12 12 10 10 9 9 9 9 9 9 9 7 9 8 7 6 5 5 6 6 5 5 4 5 6 5 4 4 3 5 5 5 4 5 4 3 4 2 4
14 12 14 15 18 18 16 15 15 14 14 13 13 14 13 13 12 11 12 12 12 12 12 12 11 11 10 10 9 8 9 10 9 8 8 7 6 6 7 7 7 7 6 6 5 6 1 3 5 5 5 5 5 4 5 5 7 5 4 4 4 3 3
18 14 11 8 12 15 16 16 17 15 13 14 13 12 12 13 13 14 13 12 11 11 11 11 11 11 11 11 10 9 9 9 9 8 7 7 8 7 7 7 7 8 7 6 6 6 6 6 5 6 6 6 6 5 6 6 5 6 6 5 5 5 1
15 12 10 6 9 12 15 16 16 15 14 14 14 12 11 12 11 11 12 11 11 11 12 12 11 10 9 9 9 9 10 10 10 11 9 9 8 8 8 8 7 7 7 7 7 6 7 7 6 5 6 6 5 6 5 5 4 4 5 5 5 4 3
16 13 10 10 8 9 9 11 14 13 11 12 13 12 11 7 8 11 10 11 11 11 11 10 10 8 8 9 9 10 9 10 10 10 9 10 9 9 8 8 8 7 7 7 7 7 6 6 7 7 6 7 5 5 4 5 5 5 5 6 6 6 6
15 14 12 10 6 6 10 8 7 3 6 12 12 12 9 7 3 7 10 9 9 8 9 9 9 8 7 8 8 10 9 8 8 9 10 11 10 11 10 10 9 8 8 8 7 7 7 7 7 7 6 6 6 6 6 5 6 6 6 5 6 6 6
15 14 12 10 8 8 9 11 10 4 8 7 9 10 9 7 10 11 7 6 7 7 8 8 7 8 8 9 9 9 10 10 10 11 10 10 9 11 11 11 10 9 9 9 8 8 8 7 7 7 6 6 5 5 6 7 6 7 7 7 6 6 6
13 13 13 11 9 7 8 9 8 4 5 1 6 9 11 10 8 6 6 5 5 5 6 7 6 7 8 8 9 9 9 10 9 10 9 9 9 11 12 11 10 9 10 9 9 9 8 7 7 6 7 7 8 7 8 7 8 7 7 6 7 7 7
12 12 12 11 8 7 8 6 7 5 8 1 4 6 7 6 7 6 6 5 4 5 5 6 6 6 7 7 8 9 10 10 10 10 10 9 9 9 10 10 10 10 9 9 8 9 8 8 8 8 8 8 8 8 8 8 8 8 7 8 7 7 6
13 12 11 12 9 7 7 8 8 9 9 9 6 2 4 5 6 6 6 7 5 4 6 7 7 6 6 7 8 8 9 10 9 9 9 9 9 8 9 10 9 10 10 9 10 9 10 9 9 8 8 9 8 8 8 8 8 8 8 8 8 7 6
12 12 11 11 10 10 9 8 8 8 8 8 6 5 4 4 4 6 6 6 5 5 6 6 7 7 7 7 8 8 9 9 9 9 8 8 8 9 9 10 11 10 9 8 9 10 10 10 10 9 9 9 9 9 8 7 8 9 8 8 8 8 7
11 12 12 12 10 9 9 8 8 6 5 5 6 6 5 4 4 3 3 4 5 6 7 6 6 8 8 7 8 8 8 7 6 5 4 4 5 6 7 8 9 9 9 8 8 9 10 10 10 10 11 10 9 10 9 10 10 9 9 9 9 9 9
11 11 12 12 12 10 8 8 7 7 6 6 5 5 6 5 5 5 6 6 6 6 6 6 7 8 8 9 8 7 7 7 5 6 6 5 5 4 4 5 5 6 7 9 9 9 8 8 9 10 10 10 10 10 10 8 9 6 4 4 4 7 7
12 12 11 9 8 8 7 6 7 8 7 6 6 6 7 6 4 5 5 4 5 5 5 6 7 9 10 10 8 7 6 6 7 6 6 5 4 5 5 4 3 4 5 7 8 7 7 8 9 10 10 10 9 10 9 9 2 8 9 7 3 5 6
13 11 7 5 4 5 6 6 5 5 6 7 6 5 4 4 5 5 6 6 6 4 4 6 5 6 8 10 9 7 6 5 5 6 7 7 6 6 7 7 6 6 6 7 9 8 8 9 9 9 10 8 11 9 10 2 10 9 9 8 6 4 4
11 9 9 6 8 8 8 8 9 9 7 5 5 6 6 3 0 2 4 6 5 2 3 4 5 7 6 4 6 8 8 8 8 9 9 8 8 8 9 10 10 9 9 9 8 6 7 8 10 10 9 9 8 9 2 8 11 10 9 7 6 4 4
6 10 12 12 11 10 10 8 7 7 7 7 7 6 6 7 8 7 7 6 4 3 4 3 5 6 5 4 1 1 3 5 9 9 8 7 7 8 10 11 11 11 10 9 8 8 7 8 10 9 9 7 9 4 7 5 10 10 9 8 8 6 4
7 9 13 13 12 11 10 9 9 9 9 9 8 7 6 7 7 7 8 8 7 6 6 7 7 6 5 5 4 3 4 2 3 5 5 5 7 10 11 9 9 10 9 8 5 2 3 6 7 6 7 6 4 6 6 6 11 10 9 9 8 8 6
1 4 12 10 13 11 10 10 9 9 9 8 9 8 8 8 8 9 10 9 8 8 8 7 7 8 7 6 6 6 5 4 5 4 4 5 4 3 6 8 10 9 9 5 4 4 3 6 2 1 2 6 6 3 4 5 9 8 8 9 9 9 5
6 9 11 12 13 12 11 11 10 11 10 9 9 9 8 8 8 8 8 8 8 8 8 9 8 8 7 7 7 6 6 5 6 6 6 5 3 4 6 7 6 7 6 5 6 7 5 5 6 1 5 4 3 2 3 6 8 9 9 9 10 7 5
9 12 12 12 11 11 12 11 11 11 11 11 10 10 9 8 8 9 9 8 8 8 8 8 9 8 8 8 7 6 5 4 5 6 6 5 5 6 6 5 6 6 5 5 3 4 4 6 2 4 8 8 4 2 5 5 8 10 11 11 10 7 5
10 9 8 9 10 12 12 12 12 13 12 12 12 10 10 10 10 10 9 8 8 8 9 8 7 8 7 8 6 6 7 6 6 6 6 6 6 6 6 5 5 4 4 2 2 3 3 5 4 4 6 9 8 8 6 6 7 11 11 12 11 8 5
7 9 8 8 9 11 13 13 13 13 12 11 10 8 8 8 7 8 7 6 6 7 6 5 3 5 7 7 6 4 5 6 7 6 6 7 7 6 5 4 4 5 4 4 3 4 5 5 5 7 6 8 8 6 6 6 6 7 10 11 12 11 6
9 10 11 9 10 9 10 11 11 12 12 10 8 7 6 5 7 7 7 6 7 8 7 7 8 8 5 0 0 4 6 6 6 7 7 7 6 6 6 4 5 3 5 7 6 6 6 5 3 4 5 6 8 8 7 5 5 7 11 12 12 13 11
12 13 13 8 9 8 10 9 10 12 12 11 9 7 6 7 7 7 6 6 7 8 6 5 5 5 5 7 7 7 7 8 9 8 6 6 5 6 5 4 4 4 4 5 5 6 5 4 3 2 5 6 7 8 7 7 9 6 10 10 10 11 13
9 12 11 10 9 9 10 9 10 10 10 9 9 8 7 7 8 7 7 7 6 6 6 5 5 4 5 5 5 5 4 4 5 3 3 4 5 6 5 4 5 4 4 4 5 6 3 2 1 1 3 5 7 7 7 6 6 7 7 8 9 9 9
7 9 10 9 9 9 10 10 9 9 9 8 8 8 8 7 7 6 6 7 5 5 5 5 5 4 4 4 3 3 4 4 5 5 5 5 5 5 5 5 5 4 4 4 3 3 3 2 1 0 2 3 2 5 7 6 6 6 6 5 5 6 6
10 10 10 9 10 9 8 9 9 8 8 7 7 7 8 7 7 7 7 5 4 4 4 4 3 3 4 4 3 3 3 3 3 5 5 1 3 5 6 7 6 4 3 2 2 2 2 2 1 1 1 1 2 3 4 6 6 6 5 4 3 3 6
9 8 9 9 9 8 8 9 9 9 9 8 8 7 6 7 7 7 6 4 4 4 4 4 4 4 3 3 3 2 1 2 4 3 3 4 4 4 3 5 6 6 7 6 2 1 1 2 2 2 2 1 2 3 1 2 3 2 5 4 4 4 3
5 6 11 9 9 7 7 8 7 8 9 9 8 7 7 7 7 7 5 4 4 4 3 3 3 3 2 2 2 2 2 2 2 1 3 2 4 6 5 4 5 4 2 1 6 5 2 1 2 4 3 1 2 1 1 2 2 5 5 6 6 7 5
7 7 7 8 8 6 7 7 7 8 8 8 7 6 7 6 5 6 5 4 4 4 3 2 1 2 3 3 3 3 3 3 1 3 1 3 4 3 3 4 5 5 3 3 3 5 6 4 0 3 3 1 2 2 3 3 8 6 6 6 7 6 6
6 7 8 9 8 8 7 7 7 8 8 8 7 6 6 6 5 4 4 4 4 2 1 2 1 2 1 1 2 3 2 1 2 3 3 2 2 4 6 7 7 6 5 7 6 5 5 8 4 3 2 3 1 1 2 7 6 6 4 5 4 4 5
7 7 8 8 8 8 8 8 8 7 7 7 6 6 6 6 5 4 4 4 4 3 3 2 1 0 1 2 3 3 2 3 4 4 4 3 2 4 5 8 9 8 6 6 8 9 8 6 5 5 6 5 7 7 5 5 5 3 3 4 3 2 3
7 7 7 8 8 9 9 8 8 8 8 6 6 6 5 5 4 4 4 3 3 3 2 1 1 1 2 2 4 5 5 3 3 3 2 2 3 3 2 4 5 8 10 9 6 6 6 5 4 7 8 7 5 9 13 11 7 5 4 2 1 3 5
6 7 7 8 7 9 10 9 8 8 8 6 6 6 6 6 5 3 5 4 3 3 2 0 0 0 2 3 3 1 2 1 2 2 0 1 1 1 1 1 5 3 4 3 7 8 6 6 6 4 5 7 8 4 5 8 8 4 3 3 3 4 5
Wind_Direction
190 188 183 182 181 181 181 180 177 172 172 170 178 182 174 175 170 166 172 173 175 176 181 181 184 179 183 184 187 183 194 183 194 191 193 195 200 183 181 188 184 214 173 184 186 119 199 79 144 187 143 180 197 173 202 200 213 206 202 207 224 277 298
187 190 180 183 180 181 178 178 173 174 172 173 180 181 173 175 165 171 173 173 179 179 182 182 186 184 182 188 185 187 191 196 194 189 200 185 193 196 191 200 198 175 254 239 130 175 154 186 175 186 187 176 198 181 184 204 218 232 201 191 225 219 254
187 183 184 183 182 184 178 174 176 177 173 176 177 179 179 173 169 176 171 172 180 182 184 186 188 188 185 187 192 187 192 194 195 197 201 189 196 195 196 190 203 180 207 204 184 190 178 192 179 182 213 210 194 169 202 191 209 216 209 215 234 218 203
173 178 183 197 183 191 177 176 179 176 175 183 171 180 177 176 172 174 177 175 180 182 187 192 190 192 189 188 192 190 194 198 203 198 208 196 198 209 190 190 210 214 185 203 195 236 169 183 167 183 217 207 229 193 194 180 219 215 204 210 240 201 228
169 181 180 196 185 182 177 178 180 174 180 175 172 183 175 173 174 178 184 182 185 187 188 195 193 193 189 194 195 193 194 196 200 209 209 212 218 204 207 210 191 216 198 200 196 199 214 197 184 189 191 211 206 209 201 188 208 193 202 215 232 218 222
175 179 176 185 175 176 178 178 177 178 180 169 177 185 173 177 179 185 183 184 187 192 194 200 200 188 194 196 200 194 191 195 195 204 220 214 208 212 204 208 217 200 198 208 198 193 192 219 224 195 202 192 214 200 206 200 204 201 190 211 225 234 184
169 167 155 195 174 171 177 178 176 176 180 179 177 173 174 176 190 182 187 183 185 192 198 198 203 192 195 200 197 200 197 193 194 200 202 214 213 219 208 203 216 211 214 195 212 204 190 202 222 212 210 228 207 215 194 205 214 207 200 198 215 232 217
167 165 159 173 168 175 142 204 171 177 176 178 173 171 178 170 184 187 196 178 190 193 198 197 200 202 193 205 192 206 204 201 198 202 200 206 209 214 216 215 204 211 215 217 196 213 211 199 209 207 214 219 214 228 205 194 210 231 215 215 213 226 209
168 167 161 153 156 177 167 144 66 33 212 183 172 166 154 150 143 257 183 177 181 195 192 198 192 196 197 204 197 201 205 205 212 211 205 212 210 207 213 213 215 210 214 218 211 201 216 209 216 213 206 225 222 204 217 198 212 222 235 224 220 225 246
162 155 140 114 106 82 80 77 84 136 233 239 171 144 145 159 184 202 166 167 168 195 183 188 190 187 193 199 210 202 203 202 209 213 212 214 218 215 215 213 207 206 217 219 214 218 204 217 215 200 202 213 222 204 223 211 218 229 220 223 225 233 228
163 154 152 140 126 99 88 97 89 43 50 142 146 163 164 175 155 147 151 157 174 188 185 178 176 175 186 194 204 206 212 211 211 214 209 218 224 224 214 218 214 199 212 213 217 223 211 194 214 202 196 214 215 220 221 222 220 224 237 229 220 220 229
158 163 161 157 133 117 110 128 149 152 114 50 345 82 100 121 135 143 144 162 171 168 172 171 179 174 175 188 195 197 206 210 210 215 212 215 226 239 245 223 216 214 201 218 220 220 225 202 203 203 201 213 219 218 219 222 225 225 232 237 230 219 232
153 154 160 158 147 133 135 143 162 151 163 187 178 137 102 109 125 134 141 151 163 172 182 178 180 186 195 198 205 201 203 211 216 218 212 208 214 221 238 246 237 224 219 207 216 219 227 210 204 206 208 209 219 221 217 220 224 228 224 237 244 245 232
147 150 158 152 151 157 154 147 153 157 167 172 173 179 171 175 171 158 155 161 164 177 194 188 192 195 203 204 213 212 206 212 214 214 221 214 210 216 223 235 242 241 237 236 217 219 225 227 205 204 214 213 215 220 221 226 234 221 227 230 238 237 231
145 146 152 150 151 151 149 155 154 147 151 148 157 155 144 148 162 162 175 199 194 192 204 204 202 208 206 206 213 216 216 213 209 207 216 217 218 223 228 234 243 246 243 234 240 232 228 227 224 214 214 215 216 221 222 218 221 224 220 222 226 238 239
137 141 139 129 125 128 130 137 142 156 158 156 155 173 186 182 171 180 183 183 183 196 209 214 220 223 221 216 213 210 210 210 206 202 203 210 211 220 228 233 247 255 249 241 232 240 245 241 233 230 221 218 219 218 224 227 231 215 183 202 220 236 259
124 113 105 90 98 128 142 157 155 158 150 146 141 164 184 194 185 182 172 184 202 213 227 232 222 222 226 221 208 202 204 218 226 222 221 217 222 225 229 243 267 276 265 254 247 245 242 239 237 235 236 227 225 224 225 235 56 83 130 126 99 252 228
121 104 106 137 137 122 125 128 142 131 115 116 129 155 188 201 181 193 205 205 211 204 200 205 202 200 216 224 219 210 202 207 226 235 231 226 219 226 235 243 243 251 253 249 238 235 244 234 232 238 236 228 228 226 233 132 24 21 49 53 54 14 282
97 121 161 169 130 131 126 119 112 108 115 112 86 76 67 55 152 206 223 223 227 226 212 207 218 227 229 241 257 246 228 217 213 223 228 217 211 211 221 224 230 230 232 238 245 249 242 253 238 226 232 240 241 243 70 67 39 22 25 37 28 38 303
145 145 135 126 114 99 88 98 100 103 97 92 83 73 69 55 52 42 38 38 56 74 51 81 70 64 59 59 112 218 219 224 224 219 222 219 214 229 229 227 226 227 226 223 227 234 232 245 256 238 228 227 232 82 71 78 25 12 14 24 15 4 312
243 136 126 118 111 107 105 103 103 96 87 80 83 83 79 70 66 61 47 33 34 50 72 72 69 63 57 74 82 121 117 138 211 229 245 251 233 227 229 227 232 229 227 219 221 257 297 275 264 292 296 271 31 63 78 50 22 14 2 8 7 357 324
307 128 117 117 113 114 115 112 109 99 90 90 84 78 70 69 64 61 56 41 35 42 51 58 64 70 74 73 71 69 69 82 79 84 68 38 23 317 282 259 244 227 209 181 184 219 263 254 265 276 322 347 27 309 49 67 33 13 8 7 4 353 293
132 111 103 98 103 110 111 107 100 99 97 93 92 90 86 83 82 76 67 54 48 50 59 69 62 58 59 64 65 70 81 82 78 72 64 60 37 30 30 25 349 12 326 198 198 194 199 264 255 211 76 37 237 181 61 56 25 11 18 12 11 340 306
100 97 99 106 112 109 106 103 104 100 99 94 89 89 95 97 94 90 79 72 65 58 51 50 56 51 31 27 38 53 47 63 84 84 80 71 59 48 32 31 24 23 1 356 104 154 184 221 297 152 155 161 164 157 97 80 40 22 21 16 9 353 307
49 39 72 99 109 109 102 97 98 102 100 99 99 105 102 97 91 82 75 67 61 57 58 59 59 57 58 62 30 40 55 58 60 73 77 81 78 58 50 35 33 21 12 27 30 76 97 121 222 140 126 128 135 123 105 79 54 31 23 20 17 357 310
102 109 87 80 82 95 107 113 114 109 106 100 95 90 87 91 89 92 100 104 108 91 80 85 100 91 61 20 25 51 61 64 65 65 66 70 68 67 63 58 33 28 19 34 31 45 46 78 86 109 121 120 111 91 84 83 63 34 29 30 21 7 330
118 104 94 95 114 142 129 121 113 107 101 96 96 87 83 90 91 92 91 87 78 74 76 76 75 59 40 131 39 33 62 64 58 56 55 59 63 63 61 65 88 85 70 68 50 50 37 36 31 106 116 118 110 96 75 67 79 56 39 34 26 16 1
103 103 109 131 137 109 81 86 95 106 110 112 106 99 92 88 87 88 92 92 94 98 95 89 90 101 81 57 48 41 33 49 44 27 31 47 62 71 69 60 46 57 76 93 81 49 38 14 34 94 140 134 111 113 99 66 52 63 53 38 33 29 23
135 127 133 139 122 116 119 118 112 101 101 103 102 97 94 92 90 86 81 78 78 97 104 97 90 83 82 80 79 97 94 74 78 35 47 36 46 60 67 72 74 69 63 52 83 97 75 16 360 53 123 137 144 116 103 95 75 48 62 51 35 30 27
127 130 138 131 124 129 126 117 108 109 104 99 103 104 99 98 94 92 91 81 62 66 75 89 106 112 102 98 95 105 112 117 104 61 338 26 42 52 53 57 60 54 51 65 55 72 126 155 222 164 158 180 143 118 119 131 118 104 87 68 38 30 24
144 153 139 139 126 119 119 107 105 106 110 109 104 101 106 107 109 105 99 92 82 69 74 80 81 78 79 78 85 79 68 76 92 132 153 117 53 45 39 32 18 30 12 64 105 112 60 307 141 239 80 57 148 129 139 141 149 125 126 139 116 49 26
151 159 136 138 130 143 124 127 125 116 104 100 101 106 113 117 116 112 105 112 107 103 81 69 66 63 69 85 76 51 83 105 101 84 75 113 127 122 82 69 41 359 343 335 3 47 103 222 237 226 200 231 67 61 45 46 317 151 107 165 173 169 136
156 155 133 148 130 137 136 120 114 111 111 106 106 107 104 102 108 110 118 112 115 101 94 88 79 76 73 76 76 79 48 12 16 88 130 157 158 148 143 134 143 174 200 342 328 323 303 287 231 236 219 171 108 159 119 174 129 55 49 29 8 7 357
139 123 136 137 145 146 125 120 118 117 112 108 103 106 112 120 119 127 129 122 99 94 119 138 170 162 154 172 166 151 139 107 202 277 78 43 8 51 99 148 172 158 135 61 47 2 322 273 344 16 24 178 187 184 213 150 67 47 37 33 13 5 354
155 157 147 151 143 139 130 129 126 123 126 123 127 122 119 118 119 111 110 104 103 112 86 66 48 352 8 49 67 63 340 120 85 33 33 88 110 63 28 7 6 34 72 53 27 32 4 346 10 33 354 319 14 345 259 71 62 60 22 42 30 18 2
169 160 160 153 149 146 141 140 136 136 130 132 134 133 133 129 131 154 138 130 124 128 117 134 134 169 6 14 29 49 34 10 52 42 349 2 54 115 97 52 48 27 19 74 77 60 44 25 37 4 348 356 53 36 30 58 78 105 62 65 33 351 303
173 167 175 165 164 152 149 147 147 144 141 142 145 141 136 137 146 142 118 106 114 126 122 182 199 191 139 75 35 13 350 8 27 43 30 1 1 354 86 137 65 52 73 95 95 85 88 71 67 41 32 13 62 77 79 103 119 129 94 58 16 319 305
187 183 184 177 175 158 151 153 157 155 153 152 160 148 152 150 142 134 126 133 119 117 121 169 176 39 37 81 104 91 314 357 63 328 227 84 360 297 280 232 148 120 55 83 136 139 125 113 97 80 64 53 40 48 126 104 87 41 23 352 338 320 313